Temperature
7 7 7 7 8 7 7 8 8 8 8 8 8 8 8 8 8 8 8 8 8 8 8 8 8 7 7 7 7 7 7 7 7 7 7 8 8 8 8 8 8 7 7
6 6 7 7 7 7 7 7 7 7 7 8 8 8 8 7 7 7 7 7 7 7 7 7 7 7 7 7 6 6 6 6 6 6 6 7 7 7 7 7 7 7 7
6 6 6 6 6 7 7 7 7 7 7 7 7 7 7 7 7 7 7 7 7 6 6 6 6 6 6 6 6 6 5 5 5 5 6 6 6 6 6 6 6 6 6
5 5 6 6 6 6 6 6 6 6 6 6 6 6 6 6 6 6 6 6 6 6 6 5 5 5 5 5 5 5 5 5 5 5 5 5 5 5 5 5 5 5 5
5 5 5 5 5 6 6 6 6 6 6 6 6 6 5 5 5 5 5 5 5 5 5 5 4 4 4 4 4 4 4 4 4 4 4 4 4 4 4 5 5 5 5
5 5 5 5 5 5 5 5 5 5 5 5 5 5 5 5 5 5 4 4 4 4 4 4 4 4 4 4 4 4 3 3 3 3 3 4 3 4 4 4 4 4 4
4 4 4 5 5 5 5 4 5 5 5 5 4 4 4 4 4 4 4 4 4 4 4 4 4 3 3 3 3 3 3 3 3 3 3 3 3 3 3 3 3 3 3
4 4 4 4 4 4 4 4 4 4 4 4 4 4 4 3 3 3 3 3 3 3 3 3 2 2 2 2 2 2 2 2 2 3 3 3 3 3 3 3 3 3 3
4 4 4 3 3 3 3 3 3 3 3 3 3 3 3 3 2 2 2 2 2 2 2 2 2 2 2 2 2 1 2 2 2 2 2 2 2 2 2 2 2 2 2
3 3 3 3 3 3 3 3 2 2 2 2 2 2 2 2 1 1 1 1 1 1 1 1 1 1 1 1 1 1 1 1 1 1 1 1 1 1 2 2 2 1 1
3 3 3 2 2 2 2 2 1 1 1 1 1 1 1 1 1 1 0 -0 -0 -0 0 0 0 0 0 0 0 0 0 0 0 0 0 0 1 1 1 1 1 1 1
2 2 2 2 2 1 1 1 1 1 1 0 0 0 0 0 -0 -0 -0 -1 -1 -1 -1 -0 -0 -0 -0 -0 -0 -0 -0 -0 -0 -1 -1 -0 -0 -0 -0 -0 0 0 0
2 2 2 1 1 1 0 0 0 -0 -0 -0 -1 -1 -1 -1 -1 -1 -1 -1 -1 -1 -1 -1 -1 -1 -1 -1 -1 -1 -1 -1 -1 -1 -1 -1 -1 -1 -1 -1 -1 -1 -1
2 1 1 1 1 0 0 -0 -0 -1 -1 -1 -2 -2 -2 -2 -2 -2 -2 -2 -2 -2 -2 -1 -1 -1 -1 -1 -1 -1 -2 -2 -2 -2 -2 -2 -2 -2 -1 -1 -1 -1 -1
1 1 1 0 0 0 -0 -1 -1 -1 -2 -2 -2 -3 -3 -3 -3 -3 -3 -2 -2 -3 -2 -2 -2 -2 -2 -2 -2 -2 -2 -2 -2 -3 -3 -3 -3 -2 -2 -2 -2 -2 -2
1 1 0 0 -0 -0 -1 -1 -1 -2 -2 -2 -3 -3 -3 -3 -3 -3 -3 -3 -3 -3 -3 -3 -3 -3 -3 -3 -3 -3 -3 -3 -3 -3 -3 -3 -3 -3 -3 -3 -3 -2 -2
1 0 0 -0 -1 -1 -1 -1 -2 -2 -2 -3 -3 -3 -3 -3 -3 -3 -3 -3 -3 -3 -3 -4 -4 -4 -4 -4 -4 -4 -3 -3 -4 -4 -4 -4 -4 -4 -4 -3 -3 -3 -3
0 -0 -0 -1 -1 -1 -2 -2 -2 -3 -3 -3 -3 -3 -3 -3 -3 -3 -4 -4 -4 -4 -4 -4 -4 -4 -4 -4 -4 -4 -4 -4 -4 -4 -4 -4 -4 -4 -4 -4 -4 -4 -4
0 -0 -1 -1 -1 -2 -2 -2 -3 -3 -3 -4 -4 -4 -4 -4 -4 -4 -4 -4 -4 -5 -5 -5 -5 -5 -5 -5 -5 -5 -5 -5 -5 -5 -5 -5 -4 -4 -4 -4 -4 -4 -4
-0 -0 -1 -1 -2 -2 -2 -3 -3 -4 -4 -4 -4 -5 -5 -5 -5 -5 -5 -5 -5 -5 -5 -5 -5 -5 -5 -5 -5 -5 -5 -5 -5 -5 -5 -5 -5 -5 -5 -5 -5 -5 -4
-0 -1 -1 -2 -2 -2 -3 -3 -4 -4 -5 -5 -5 -5 -5 -6 -6 -6 -6 -6 -6 -6 -6 -6 -6 -6 -6 -6 -6 -6 -6 -6 -6 -5 -5 -5 -5 -5 -5 -5 -5 -5 -5
-1 -1 -2 -2 -2 -3 -3 -4 -4 -5 -5 -5 -5 -6 -6 -6 -6 -6 -6 -6 -6 -6 -6 -6 -6 -6 -6 -6 -6 -6 -6 -6 -6 -6 -6 -5 -5 -5 -5 -5 -5 -5 -5
-1 -2 -2 -2 -3 -3 -4 -4 -5 -5 -5 -6 -6 -6 -6 -6 -7 -7 -7 -7 -7 -7 -7 -7 -6 -6 -6 -7 -7 -7 -6 -6 -6 -6 -6 -6 -6 -6 -6 -6 -5 -6 -6
-2 -2 -2 -3 -3 -4 -4 -5 -5 -5 -6 -6 -6 -7 -7 -7 -7 -7 -7 -7 -7 -7 -7 -7 -7 -7 -7 -7 -7 -7 -7 -7 -6 -6 -6 -6 -6 -6 -6 -6 -6 -6 -6
-2 -2 -3 -3 -4 -4 -5 -5 -5 -6 -6 -6 -7 -7 -7 -7 -7 -7 -8 -7 -7 -7 -7 -7 -7 -7 -7 -7 -7 -7 -7 -7 -7 -7 -6 -6 -6 -6 -6 -6 -6 -6 -6
-2 -3 -3 -4 -4 -5 -5 -5 -6 -6 -6 -7 -7 -7 -7 -7 -7 -8 -8 -8 -8 -8 -8 -8 -7 -7 -7 -7 -7 -7 -7 -7 -7 -7 -7 -6 -6 -6 -6 -6 -6 -7 -7
Wind_Speed
4 3 3 2 2 2 1 1 1 1 2 2 3 3 3 3 4 4 4 4 5 5 6 7 9 8 7 7 7 7 8 9 12 9 6 6 8 9 9 11 12 12 13
4 4 3 3 2 2 1 0 0 1 1 2 3 3 3 3 4 4 4 5 5 5 6 7 8 7 9 8 7 8 9 10 11 12 8 7 8 9 9 9 8 10 11
4 4 4 3 3 2 1 1 1 1 1 1 2 2 2 3 3 4 4 5 5 5 6 6 7 7 9 8 8 8 8 8 9 10 9 7 6 6 7 7 8 8 9
4 4 4 4 4 3 3 3 2 2 2 1 1 1 1 2 2 3 3 4 5 5 6 6 6 7 8 8 8 9 8 9 9 9 8 7 6 5 6 7 7 7 7
5 5 5 5 4 4 4 4 3 3 3 3 2 2 2 2 2 3 3 4 5 5 6 6 6 7 9 9 8 8 8 9 9 9 9 7 7 6 7 7 8 6 6
5 5 5 5 5 5 4 4 4 4 4 4 4 3 4 3 5 6 5 4 4 5 5 6 6 6 8 10 11 12 12 11 11 10 10 10 11 9 8 7 7 6 6
6 6 6 6 6 6 5 4 4 4 5 5 4 5 5 5 7 7 8 5 5 5 6 6 5 6 8 8 9 11 12 14 14 12 12 12 11 9 9 9 9 9 7
6 6 6 6 6 6 6 6 6 5 4 4 5 5 5 6 9 10 10 7 5 6 6 7 7 7 7 8 9 9 9 10 10 10 10 11 9 9 9 9 9 7 2
5 5 6 6 6 6 6 6 6 5 5 5 5 6 6 7 9 10 10 6 5 7 7 7 7 7 9 10 8 9 10 9 8 9 10 11 11 11 9 6 6 6 5
4 4 5 5 5 5 5 5 5 5 5 5 5 5 6 6 9 10 11 6 6 6 7 7 7 9 11 11 9 9 9 9 8 7 7 7 8 8 9 8 7 7 4
2 3 4 4 4 4 5 5 5 5 5 5 5 5 5 7 8 10 11 7 7 7 7 7 7 11 12 12 11 8 10 9 8 7 6 6 5 4 5 5 5 6 6
1 2 3 3 4 3 4 4 4 4 5 5 5 6 5 6 8 10 12 11 11 8 8 8 8 13 13 12 10 10 11 9 6 5 5 5 5 5 4 3 2 2 2
1 1 2 3 3 3 3 4 4 4 4 4 5 5 6 6 8 12 13 13 13 9 8 11 13 13 12 9 9 11 8 6 5 5 5 5 5 4 2 1 0 1 2
1 0 1 2 3 3 3 3 3 3 4 4 5 5 6 6 7 8 9 9 11 10 9 10 11 11 9 9 9 7 5 5 5 5 5 5 3 2 2 2 2 2 2
2 1 1 1 2 2 3 3 3 3 4 5 4 5 6 6 9 13 11 9 9 10 10 8 7 7 7 6 7 6 5 4 5 4 4 4 3 3 2 2 2 3 3
3 2 1 1 1 2 2 3 3 4 5 6 6 6 6 8 13 14 14 14 14 13 9 7 7 7 7 7 7 7 5 5 5 5 4 4 3 3 3 2 2 3 3
4 3 2 1 1 2 2 3 4 4 4 5 6 8 9 11 12 13 14 13 12 11 6 6 7 7 8 7 7 7 6 6 5 5 4 4 3 3 3 3 3 3 3
5 4 3 2 2 2 2 3 3 4 5 5 6 8 10 12 12 12 13 11 7 7 6 7 7 8 8 7 7 6 6 6 5 4 4 4 3 3 3 3 3 3 3
5 3 3 3 2 2 3 3 3 4 5 5 5 6 9 10 10 10 10 6 7 7 7 7 8 8 8 7 7 6 6 6 6 5 4 4 3 3 3 3 3 4 4
5 5 4 3 3 2 3 3 3 4 5 5 5 6 7 7 6 7 6 6 6 7 7 8 8 8 7 7 6 6 6 5 5 5 4 4 3 3 3 3 3 3 3
5 5 5 4 3 3 3 3 4 4 4 5 5 6 8 6 6 7 7 7 7 7 8 8 8 8 7 7 6 6 6 5 5 5 4 4 3 3 2 2 2 2 3
5 4 4 4 4 4 4 4 4 4 5 5 5 6 8 6 5 6 6 7 7 7 7 8 7 7 7 6 6 6 6 6 5 5 4 4 3 2 2 1 2 2 3
5 5 5 4 4 5 4 4 4 4 4 5 5 5 5 5 5 6 7 7 7 7 7 7 7 7 7 6 6 6 6 6 5 5 4 4 3 2 1 2 2 3 4
6 6 5 5 4 4 4 4 4 4 4 4 5 5 5 5 6 6 7 7 7 7 7 7 7 9 10 8 7 6 6 6 7 5 5 4 3 2 2 2 2 3 4
6 6 5 5 5 4 4 4 4 4 4 4 5 5 5 5 6 6 6 6 7 7 8 8 7 8 10 10 9 8 9 9 7 5 3 3 2 2 2 2 2 3 3
6 6 5 5 5 5 4 4 4 4 4 4 5 5 5 5 6 6 6 6 7 7 8 7 9 10 11 10 10 10 9 8 7 6 3 2 2 2 2 2 3 3 4
Wind_Direction
58 68 80 96 121 134 136 151 183 217 230 224 225 223 226 236 239 230 230 236 242 249 250 246 246 247 247 247 247 248 250 253 260 269 267 258 241 242 239 234 230 228 227
51 58 63 61 76 87 91 91 352 303 283 245 231 229 234 240 239 237 237 239 243 250 256 258 255 251 250 253 252 251 252 251 255 265 269 259 249 243 241 238 235 230 230
45 50 50 51 58 57 45 27 16 354 317 267 228 235 246 252 250 247 245 249 251 257 262 264 264 260 255 255 259 258 257 259 258 263 266 266 262 248 243 244 239 236 234
42 46 47 43 44 44 35 25 20 10 355 324 292 275 278 265 272 272 262 262 265 266 267 266 265 262 260 260 257 258 261 262 262 263 265 264 261 251 234 237 239 234 233
42 43 41 41 43 47 42 34 30 31 32 31 33 24 3 328 316 318 299 277 272 274 276 275 273 268 264 264 263 262 262 261 262 260 262 263 257 241 234 233 238 237 238
42 38 32 36 40 38 34 30 30 30 28 27 25 22 17 6 359 341 325 296 286 283 286 288 286 277 277 275 270 265 258 256 258 260 259 257 256 253 244 235 232 233 241
44 38 33 35 37 31 28 28 26 23 21 19 16 16 12 5 0 350 344 324 301 295 295 297 300 294 290 283 280 276 267 262 259 258 259 257 257 251 242 235 227 228 240
39 35 31 31 31 26 26 27 22 18 15 12 9 5 3 0 0 355 349 337 320 313 308 302 297 297 295 296 291 284 280 276 273 270 264 264 265 258 242 235 235 232 245
36 29 23 22 23 23 22 20 15 15 14 9 3 3 2 359 0 353 345 333 324 319 315 308 301 298 302 305 296 289 290 289 287 281 281 279 273 263 251 235 219 213 229
20 18 19 19 21 20 15 10 7 7 6 1 2 1 358 354 357 353 346 339 329 321 318 315 309 309 311 310 301 292 289 294 298 300 295 289 281 265 247 230 218 216 213
2 15 20 18 16 13 9 6 1 1 360 358 357 355 355 351 351 352 348 344 335 325 318 316 315 319 316 312 307 295 291 295 292 292 292 291 286 274 259 248 232 217 211
19 23 20 14 12 5 2 358 356 356 354 352 351 350 351 348 347 349 349 345 338 326 318 314 314 317 313 310 306 302 301 298 292 289 285 281 278 273 266 259 249 238 220
50 24 12 8 3 356 354 352 350 353 351 346 344 343 342 340 342 344 343 341 336 327 317 315 313 314 313 307 305 306 303 297 292 287 284 283 280 274 266 255 160 112 83
204 355 358 352 350 351 350 347 344 344 340 337 336 335 334 334 337 338 334 331 329 325 319 317 315 313 309 309 312 311 305 296 291 286 287 291 293 281 264 250 215 166 138
208 220 285 321 330 336 338 335 330 332 329 326 326 325 326 328 333 333 332 329 328 324 323 320 324 325 324 324 322 318 314 309 301 300 295 290 289 285 275 251 211 188 189
211 224 241 277 308 316 318 318 322 319 334 332 333 329 325 326 330 334 334 333 332 331 328 327 329 328 325 322 320 318 315 309 305 301 294 289 282 275 267 243 219 205 197
219 227 233 247 273 294 304 309 314 315 315 326 338 338 335 335 336 337 336 335 338 341 337 332 328 325 322 320 318 315 312 308 303 295 290 286 279 273 260 242 223 208 196
218 223 228 237 252 272 284 293 299 308 315 319 329 334 337 338 338 339 340 338 339 345 338 330 325 322 320 320 319 316 314 313 306 298 293 288 280 268 253 247 229 210 195
212 219 225 235 245 262 275 286 293 299 303 311 319 327 335 333 332 338 342 340 333 332 330 326 322 320 320 319 318 316 314 312 308 303 297 290 281 266 254 247 228 199 189
212 214 221 230 237 250 261 271 280 289 296 303 311 321 330 330 330 332 334 329 326 324 323 321 319 318 318 317 316 316 315 313 310 306 302 296 288 272 257 240 217 199 193
207 207 211 226 232 240 250 259 269 278 287 295 301 313 325 321 317 320 322 322 322 320 320 318 316 316 315 315 314 314 313 312 310 305 304 300 293 281 261 233 204 189 175
206 208 212 223 231 236 247 255 263 270 280 289 300 307 315 314 313 315 317 318 318 316 316 314 313 313 314 314 312 308 305 306 308 306 303 301 295 286 264 220 185 175 166
204 208 214 223 231 237 244 250 257 268 277 286 294 299 304 306 308 310 313 315 317 317 318 317 315 316 317 313 310 305 299 298 299 298 296 294 289 278 256 219 195 183 177
203 209 214 220 225 232 241 249 256 265 275 282 285 289 296 300 302 306 310 312 315 315 317 316 314 315 318 317 311 305 300 299 300 294 285 277 277 266 246 218 204 191 186
203 209 213 217 223 230 238 246 252 260 268 274 279 284 291 296 299 302 306 310 313 313 315 316 315 318 319 318 314 310 308 309 310 308 293 272 259 251 239 221 204 192 189
204 209 214 217 223 228 234 241 248 256 263 268 273 280 286 290 294 298 303 308 313 313 313 314 317 318 319 318 316 317 318 319 322 322 311 286 265 246 234 212 196 193 189
Height
1445 1446 1447 1448 1449 1450 1451 1451 1452 1453 1454 1455 1457 1458 1459 1460 1460 1461 1461 1462 1463 1463 1464 1464 1464 1465 1465 1466 1466 1466 1466 1466 1463 1461 1462 1461 1460 1460 1460 1460 1459 1459 1459
1446 1446 1447 1447 1448 1448 1449 1449 1450 1450 1451 1452 1453 1454 1454 1455 1455 1456 1456 1456 1456 1457 1457 1456 1456 1457 1457 1458 1458 1458 1458 1458 1457 1454 1453 1453 1452 1452 1452 1452 1452 1452 1452
1447 1447 1446 1446 1446 1447 1447 1447 1447 1448 1448 1448 1448 1449 1450 1450 1450 1451 1451 1450 1450 1450 1450 1450 1449 1449 1449 1450 1450 1450 1450 1450 1449 1447 1445 1444 1444 1444 1444 1444 1444 1444 1444
1447 1447 1446 1445 1445 1445 1445 1445 1445 1445 1445 1444 1445 1445 1446 1446 1446 1445 1445 1445 1445 1445 1445 1444 1443 1442 1442 1442 1442 1442 1442 1441 1440 1439 1438 1436 1436 1435 1435 1435 1435 1435 1436
1448 1447 1446 1445 1445 1444 1444 1444 1443 1442 1442 1442 1442 1442 1442 1442 1441 1441 1440 1440 1440 1439 1439 1438 1437 1436 1436 1436 1435 1434 1434 1433 1432 1431 1430 1429 1428 1427 1427 1427 1427 1428 1428
1449 1447 1446 1445 1445 1444 1443 1443 1442 1441 1440 1440 1439 1439 1439 1438 1437 1437 1436 1435 1435 1434 1433 1432 1431 1430 1430 1429 1428 1427 1427 1426 1424 1423 1421 1420 1419 1419 1419 1419 1420 1420 1420
1450 1448 1447 1445 1444 1443 1442 1442 1441 1440 1439 1439 1438 1437 1436 1435 1434 1433 1432 1431 1430 1429 1428 1427 1426 1425 1424 1423 1421 1420 1419 1418 1418 1416 1414 1412 1411 1411 1411 1411 1412 1412 1412
1450 1448 1447 1445 1444 1443 1442 1441 1440 1439 1438 1437 1436 1435 1434 1433 1432 1430 1429 1427 1426 1425 1423 1422 1421 1419 1418 1417 1415 1413 1412 1411 1410 1408 1406 1405 1405 1404 1404 1404 1404 1405 1406
1451 1449 1448 1446 1445 1443 1442 1441 1440 1438 1437 1436 1435 1433 1432 1431 1429 1427 1425 1423 1422 1420 1419 1418 1416 1414 1413 1412 1410 1408 1405 1404 1403 1401 1399 1398 1397 1397 1397 1397 1397 1397 1397
1452 1450 1449 1447 1445 1444 1442 1441 1439 1438 1436 1435 1433 1432 1430 1428 1427 1425 1422 1420 1418 1417 1415 1413 1412 1410 1408 1406 1405 1402 1399 1397 1396 1394 1393 1392 1390 1389 1389 1390 1390 1391 1391
1452 1451 1450 1448 1446 1444 1442 1440 1438 1437 1435 1433 1431 1430 1428 1426 1424 1422 1420 1418 1415 1413 1411 1409 1407 1405 1403 1402 1400 1397 1395 1393 1390 1388 1386 1385 1384 1383 1383 1383 1383 1384 1385
1452 1451 1449 1448 1446 1444 1442 1440 1438 1436 1434 1432 1430 1428 1426 1424 1422 1420 1417 1415 1413 1410 1407 1405 1403 1400 1398 1396 1394 1392 1390 1388 1385 1383 1381 1380 1379 1378 1377 1377 1378 1378 1379
1452 1450 1449 1447 1445 1444 1441 1439 1437 1435 1433 1431 1429 1427 1424 1422 1420 1418 1415 1412 1410 1407 1404 1401 1398 1396 1393 1391 1389 1387 1384 1382 1380 1378 1376 1375 1374 1374 1373 1373 1373 1374 1374
1450 1449 1448 1446 1444 1443 1440 1438 1436 1434 1432 1430 1428 1425 1423 1420 1418 1415 1412 1409 1406 1403 1400 1397 1395 1392 1389 1387 1384 1382 1380 1378 1376 1374 1373 1371 1370 1370 1369 1369 1369 1370 1371
1448 1447 1446 1445 1443 1441 1439 1437 1435 1433 1431 1429 1427 1424 1422 1419 1416 1413 1410 1406 1403 1400 1397 1394 1391 1388 1385 1382 1380 1378 1376 1374 1372 1371 1369 1367 1366 1366 1366 1366 1366 1366 1367
1445 1444 1443 1442 1441 1439 1437 1435 1433 1431 1429 1427 1425 1422 1419 1417 1414 1411 1407 1404 1401 1397 1394 1391 1388 1385 1382 1379 1376 1374 1372 1370 1369 1367 1365 1364 1363 1362 1362 1362 1363 1363 1364
1443 1442 1441 1440 1438 1436 1435 1433 1431 1429 1427 1425 1422 1419 1417 1414 1411 1408 1404 1401 1398 1395 1392 1388 1385 1382 1380 1377 1374 1371 1369 1367 1365 1364 1362 1361 1360 1359 1359 1359 1360 1361 1362
1439 1438 1437 1436 1435 1434 1432 1430 1428 1426 1423 1421 1419 1416 1414 1411 1408 1405 1401 1398 1395 1392 1389 1386 1383 1380 1377 1374 1371 1368 1366 1364 1362 1360 1359 1358 1357 1357 1356 1357 1357 1358 1359
1434 1434 1433 1433 1432 1430 1429 1427 1425 1423 1420 1418 1415 1413 1410 1407 1405 1402 1399 1396 1392 1389 1386 1384 1381 1377 1374 1371 1369 1366 1364 1361 1359 1358 1356 1355 1354 1354 1354 1354 1355 1356 1357
1430 1430 1429 1429 1427 1426 1425 1423 1422 1420 1417 1415 1412 1410 1407 1404 1401 1398 1396 1393 1390 1387 1384 1381 1378 1375 1372 1369 1366 1364 1361 1359 1357 1355 1354 1353 1352 1351 1351 1352 1352 1353 1355
1425 1425 1425 1424 1423 1422 1421 1419 1418 1416 1414 1411 1409 1407 1404 1401 1398 1396 1393 1390 1387 1385 1382 1379 1376 1373 1370 1367 1364 1361 1359 1357 1355 1353 1352 1351 1350 1350 1349 1350 1350 1351 1353
1421 1420 1420 1419 1418 1417 1416 1415 1413 1412 1410 1408 1405 1403 1401 1398 1396 1393 1390 1387 1385 1382 1379 1376 1373 1370 1367 1365 1362 1359 1357 1355 1353 1352 1350 1349 1349 1348 1348 1348 1349 1350 1351
1415 1415 1415 1414 1413 1412 1411 1410 1409 1407 1406 1404 1402 1399 1397 1395 1393 1390 1387 1385 1382 1379 1376 1373 1371 1368 1365 1362 1360 1357 1355 1353 1352 1350 1349 1348 1348 1347 1347 1347 1348 1349 1350
1410 1410 1410 1409 1408 1407 1406 1405 1404 1403 1401 1400 1398 1396 1394 1392 1389 1387 1385 1382 1379 1376 1374 1371 1368 1365 1363 1360 1358 1355 1353 1352 1350 1349 1348 1347 1346 1346 1346 1346 1347 1348 1349
1405 1405 1404 1404 1403 1402 1401 1400 1399 1398 1397 1395 1394 1392 1390 1388 1386 1384 1381 1379 1376 1373 1371 1368 1365 1363 1360 1358 1356 1353 1352 1350 1349 1347 1346 1346 1345 1345 1345 1345 1346 1347 1348
1399 1399 1399 1399 1398 1397 1396 1396 1394 1393 1392 1391 1390 1388 1386 1384 1383 1381 1378 1376 1373 1371 1368 1365 1363 1361 1358 1356 1354 1352 1350 1349 1347 1346 1345 1345 1344 1344 1344 1344 1345 1346 1347